Flag for Mongolia Weather past 2 weeks in Ulaanbaatar, Mongolia

Now
61 °F

Partly sunny.


Feels Like: 61 °F
Forecast: 49 / 71 °F
Wind: 13 mph from Northwest

Location: Ulan-Bator

Current Time: Aug 4, 2015 at 3:04:07 PM

Latest Report: Aug 4, 2015 at 2:30 PM


Visibility: N/A

Pressure: 29.74 "Hg (25.51 "Hg at 1298m altitude)

Humidity: 68%

Dew point: 50 °F

Location of UlaanbaatarLocation

Historic Weather in Ulaanbaatar — Graph

°F

Ulaanbaatar temperature yesterday

Maximum temperature yesterday: 75 °F (at 3:30 PM)
Minimum temperature yesterday: 45 °F (at 6:30 AM)
Average temperature yesterday: 61 °F

Past Weeks' High & Low Weather Summary

 TemperatureHumidityPressure
High86 °F (Jul 23, 4:30 PM)94% (Jul 21, 5:00 AM)30.07 "Hg (Jul 21, 5:00 AM)
Low45 °F (Aug 3, 6:30 AM)21% (Jul 26, 6:30 PM)29.65 "Hg (Jul 27, 5:00 PM)
Average64 °F63%29.85 "Hg
* Reported Jul 20 2:00 PM — Aug 4 2:00 PM, Ulaanbaatar, Weather by CustomWeather, © 2015

Note: Actual official high and low records may vary slightly from our data, if they occured in-between our weather recording intervals... More about our weather records

Advertising

Ulaanbaatar weather history for previous 24 hours

 ConditionsComfort  
Time TempWeatherWind HumidityBarometerVisibility
2:00 PM
Tue, Aug 4
64 °FPartly sunny.3 mph68%29.74 "HgN/A
1:30 PM64 °FPartly sunny.3 mph64%29.74 "HgN/A
1:00 PM63 °FPartly sunny.3 mph64%29.74 "HgN/A
12:30 PM63 °FPartly sunny.6 mph64%29.74 "HgN/A
12:00 PM63 °FPartly sunny.3 mph59%29.74 "HgN/A
11:30 AM61 °FScattered clouds.3 mph72%29.74 "HgN/A
11:00 AM61 °FScattered clouds.3 mph72%29.74 "HgN/A
10:30 AM59 °FScattered clouds.8 mph72%29.74 "HgN/A
10:00 AM59 °FPartly sunny.6 mph72%29.74 "HgN/A
9:30 AM59 °FPartly sunny.8 mph72%29.71 "HgN/A
9:00 AM57 °FPartly sunny.10 mph82%29.71 "HgN/A
8:30 AM57 °FPartly sunny.10 mph77%29.71 "HgN/A
8:00 AM57 °FScattered clouds.6 mph77%29.71 "HgN/A
7:30 AM57 °FSprinkles. Passing clouds.8 mph82%29.71 "HgN/A
6:30 AM57 °FThunderstorms. Passing clouds.1 mph77%29.71 "HgN/A
6:00 AM57 °FSprinkles. Passing clouds.6 mph82%29.71 "HgN/A
5:30 AM55 °FPassing clouds.No wind77%29.71 "HgN/A
5:00 AM55 °FPassing clouds.3 mph82%29.71 "HgN/A
4:30 AM57 °FSprinkles. Passing clouds.No wind72%29.71 "HgN/A
4:00 AM57 °FPassing clouds.3 mph72%29.71 "HgN/A
3:30 AM59 °FPassing clouds.1 mph68%29.71 "HgN/A
3:00 AM55 °FPassing clouds.No wind77%29.71 "HgN/A
2:30 AM54 °FPassing clouds.1 mph77%29.68 "HgN/A
2:00 AM57 °FPassing clouds.1 mph67%29.68 "HgN/A
1:30 AM57 °FPassing clouds.1 mph63%29.68 "HgN/A
1:00 AM55 °FPassing clouds.6 mph72%29.68 "HgN/A
12:30 AM57 °FPassing clouds.1 mph67%29.68 "HgN/A
12:00 AM61 °FPassing clouds.3 mph59%29.68 "HgN/A
11:30 PM
Mon, Aug 3
63 °FPassing clouds.6 mph52%29.68 "HgN/A
11:00 PM64 °FPassing clouds.3 mph49%29.68 "HgN/A
10:30 PM61 °FPassing clouds.3 mph68%29.68 "HgN/A
10:00 PM61 °FPassing clouds.6 mph68%29.65 "HgN/A
9:30 PM68 °FScattered clouds.No wind64%29.65 "HgN/A
9:00 PM73 °FScattered clouds.1 mph31%29.65 "HgN/A
8:00 PM73 °FPartly sunny.3 mph33%29.65 "HgN/A
7:30 PM73 °FPartly sunny.3 mph38%29.65 "HgN/A
7:00 PM73 °FPassing clouds.6 mph38%29.65 "HgN/A
6:30 PM75 °FPassing clouds.3 mph31%29.65 "HgN/A
6:00 PM75 °FPassing clouds.8 mph31%29.65 "HgN/A
5:30 PM75 °FPassing clouds.10 mph29%29.65 "HgN/A
5:00 PM75 °FScattered clouds.10 mph29%29.65 "HgN/A
4:30 PM75 °FScattered clouds.8 mph31%29.68 "HgN/A
4:00 PM75 °FScattered clouds.8 mph34%29.68 "HgN/A
3:30 PM75 °FPassing clouds.10 mph29%29.68 "HgN/A
3:00 PM73 °FPassing clouds.10 mph33%29.71 "HgN/A
Weather by CustomWeather, © 2015

See weather overviewHow to use our weather pages